Weather History for Cumberland, WI

Change the Weather History Date:

Wednesday, January 16, 2013

  Actual Average (KRPD) Record (KRPD)
Temperature  
Mean Temperature 21 °F -  
Max Temperature 32 °F 19 °F - (-1)
Min Temperature 10 °F 3 °F - (-1)
Degree Days  
Heating Degree Days 44    
Moisture  
Dew Point 15 °F    
Average Humidity 72    
Maximum Humidity 93    
Minimum Humidity 46    
Precipitation  
Precipitation 0.00 in - - ()
Sea Level Pressure  
Sea Level Pressure 29.79 in    
Wind  
Wind Speed 14 mph (West)    
Max Wind Speed 21 mph    
Max Gust Speed 29 mph    
Visibility 9 miles    
Events Snow    
Averages and records for this station are not official NWS values.
T = Trace of Precipitation, MM = Missing Value Source: NWS Daily Summary

Daily Weather History Graph

Daily Weather History Graph

Search for Another Location

Airport:

Trip Planner

Search our weather history database for the weather conditions in past years. The results will help you decide how hot, cold, wet, or windy it might be!

Date:

Astronomy

Jan. 16, 2013 Rise Set
Actual Time 7:43 AM CST 4:52 PM CST
Civil Twilight 7:10 AM CST 5:25 PM CST
Nautical Twilight 6:33 AM CST 6:02 PM CST
Astronomical Twilight 5:58 AM CST 6:37 PM CST
Moon 10:01 AM CST (1/16) 11:05 PM CST (1/16)
Length of Visible Light 10h 15m
Length of Day
9h 09m
Waxing Crescent, 28% of the Moon is Illuminated
Jan 16
Waxing Crescent
Jan 18
First Quarter
Jan 26
Full
Feb 3
Last Quarter
Feb 10
New

Hourly Weather History & Observations

Time (CST) Temp. Windchill Dew Point Humidity Pressure Visibility Wind Dir Wind Speed Gust Speed Precip Events Conditions
12:15 AM 23.0 °F 8.7 °F 15.8 °F 74% 29.78 in 10.0 mi SSW 18.4 mph 24.2 mph N/A   Clear
12:35 AM 23.0 °F 9.2 °F 15.8 °F 74% 29.77 in 10.0 mi SSW 17.3 mph 24.2 mph N/A   Scattered Clouds
12:55 AM 23.0 °F 8.0 °F 15.8 °F 74% 29.74 in 10.0 mi SSW 20.7 mph 25.3 mph N/A   Mostly Cloudy
1:15 AM 23.0 °F 8.3 °F 15.8 °F 74% 29.73 in 10.0 mi SSW 19.6 mph 24.2 mph N/A   Scattered Clouds
1:35 AM 23.0 °F 8.3 °F 17.6 °F 80% 29.71 in 10.0 mi SSW 19.6 mph 27.6 mph N/A   Mostly Cloudy
1:55 AM 23.0 °F 8.7 °F 17.6 °F 80% 29.70 in 10.0 mi SSW 18.4 mph - N/A   Overcast
2:15 AM 23.0 °F 8.7 °F 17.6 °F 80% 29.69 in 10.0 mi SSW 18.4 mph 25.3 mph N/A   Overcast
2:35 AM 24.8 °F 11.5 °F 15.8 °F 69% 29.68 in 10.0 mi SSW 17.3 mph 28.8 mph N/A   Overcast
2:55 AM 24.8 °F 10.7 °F 17.6 °F 74% 29.67 in 10.0 mi SSW 19.6 mph 25.3 mph N/A   Overcast
3:15 AM 23.0 °F 8.7 °F 17.6 °F 80% 29.66 in 4.0 mi SSW 18.4 mph 25.3 mph N/A Snow Light Snow
3:35 AM 23.0 °F 9.6 °F 19.4 °F 86% 29.64 in 2.5 mi SSW 16.1 mph 24.2 mph N/A Snow Light Snow
3:55 AM 23.0 °F 8.7 °F 19.4 °F 86% 29.61 in 7.0 mi SSW 18.4 mph 24.2 mph N/A   Overcast
4:15 AM 23.0 °F 8.7 °F 19.4 °F 86% 29.60 in 10.0 mi SSW 18.4 mph 21.9 mph N/A   Overcast
4:35 AM 23.0 °F 10.6 °F 21.2 °F 93% 29.60 in 1.5 mi SW 13.8 mph - N/A Snow Light Snow
4:55 AM 23.0 °F 10.1 °F 21.2 °F 93% 29.60 in 0.8 mi SW 15.0 mph 20.7 mph N/A Snow Snow
5:15 AM 23.0 °F 9.2 °F 21.2 °F 93% 29.59 in 1.2 mi SW 17.3 mph 24.2 mph N/A Snow Light Snow
5:35 AM 23.0 °F 9.2 °F 21.2 °F 93% 29.59 in 1.8 mi SW 17.3 mph 21.9 mph N/A Snow Light Snow
5:55 AM 23.0 °F 11.1 °F 21.2 °F 93% 29.59 in 2.0 mi SW 12.7 mph 21.9 mph N/A Snow Light Snow
6:35 AM 23.0 °F 10.6 °F 21.2 °F 93% 29.59 in 1.2 mi SW 13.8 mph - N/A Snow Light Snow
6:55 AM 23.0 °F 11.1 °F 21.2 °F 93% 29.59 in 1.5 mi SW 12.7 mph - N/A Snow Light Snow
7:15 AM 24.8 °F 14.6 °F 23.0 °F 93% 29.59 in 2.0 mi SW 10.4 mph - N/A Snow Light Snow
7:35 AM 24.8 °F 14.0 °F 23.0 °F 93% 29.60 in 10.0 mi SW 11.5 mph - N/A   Overcast
7:55 AM 26.6 °F 16.2 °F 23.0 °F 86% 29.61 in 7.0 mi WSW 11.5 mph - N/A   Overcast
8:15 AM 26.6 °F 17.5 °F 23.0 °F 86% 29.61 in 7.0 mi WSW 9.2 mph 18.4 mph N/A   Overcast
8:35 AM 26.6 °F 18.2 °F 23.0 °F 86% 29.62 in 7.0 mi WSW 8.1 mph - N/A   Overcast
8:55 AM 26.6 °F 18.2 °F 24.8 °F 93% 29.64 in 7.0 mi West 8.1 mph - N/A   Overcast
9:15 AM 28.4 °F 20.4 °F 24.8 °F 86% 29.64 in 10.0 mi WSW 8.1 mph - N/A   Overcast
9:35 AM 28.4 °F 19.7 °F 26.6 °F 93% 29.64 in 10.0 mi West 9.2 mph - N/A   Overcast
9:55 AM 28.4 °F 19.7 °F 26.6 °F 93% 29.64 in 10.0 mi West 9.2 mph - N/A   Overcast
10:15 AM 30.2 °F 21.9 °F 26.6 °F 86% 29.65 in 10.0 mi West 9.2 mph - N/A   Overcast
10:35 AM 30.2 °F 20.8 °F 26.6 °F 86% 29.65 in 10.0 mi WNW 11.5 mph - N/A   Overcast
10:55 AM 30.2 °F 20.2 °F 26.6 °F 86% 29.66 in 10.0 mi WNW 12.7 mph 19.6 mph N/A   Overcast
11:15 AM 30.2 °F 20.8 °F 26.6 °F 86% 29.67 in 10.0 mi WNW 11.5 mph 19.6 mph N/A   Overcast
11:35 AM 32.0 °F 22.5 °F 26.6 °F 80% 29.68 in 10.0 mi NW 12.7 mph 17.3 mph N/A   Overcast
11:55 AM 32.0 °F 22.5 °F 26.6 °F 80% 29.69 in 10.0 mi WNW 12.7 mph 19.6 mph N/A   Overcast
12:15 PM 32.0 °F 23.0 °F 26.6 °F 80% 29.69 in 10.0 mi WNW 11.5 mph - N/A   Overcast
12:35 PM 32.0 °F 22.5 °F 24.8 °F 75% 29.70 in 10.0 mi WNW 12.7 mph 19.6 mph N/A   Overcast
12:55 PM 32.0 °F 22.1 °F 24.8 °F 75% 29.70 in 10.0 mi WNW 13.8 mph 18.4 mph N/A   Overcast
1:15 PM 32.0 °F 22.5 °F 23.0 °F 69% 29.71 in 10.0 mi NW 12.7 mph 17.3 mph N/A   Overcast
1:35 PM 30.2 °F 20.8 °F 23.0 °F 75% 29.72 in 10.0 mi WNW 11.5 mph - N/A   Overcast
1:55 PM 30.2 °F 20.8 °F 23.0 °F 75% 29.73 in 10.0 mi NW 11.5 mph - N/A   Overcast
2:15 PM 30.2 °F 20.2 °F 21.2 °F 69% 29.75 in 5.0 mi WNW 12.7 mph 19.6 mph N/A Snow Light Snow
2:35 PM 28.4 °F 19.1 °F 23.0 °F 80% 29.77 in 10.0 mi WNW 10.4 mph - N/A   Overcast
2:55 PM 28.4 °F 18.5 °F 21.2 °F 74% 29.79 in 10.0 mi WNW 11.5 mph 18.4 mph N/A   Overcast
3:15 PM 28.4 °F 18.0 °F 19.4 °F 69% 29.80 in 10.0 mi NW 12.7 mph - N/A   Overcast
3:35 PM 28.4 °F 19.1 °F 19.4 °F 69% 29.81 in 10.0 mi NW 10.4 mph - N/A   Overcast
3:55 PM 28.4 °F 18.5 °F 19.4 °F 69% 29.83 in 10.0 mi NW 11.5 mph - N/A   Overcast
4:15 PM 26.6 °F 16.8 °F 17.6 °F 69% 29.85 in 10.0 mi NW 10.4 mph - N/A   Mostly Cloudy
4:35 PM 26.6 °F 14.7 °F 14.0 °F 59% 29.86 in 10.0 mi NW 15.0 mph 18.4 mph N/A   Scattered Clouds
4:55 PM 26.6 °F 15.2 °F 10.4 °F 51% 29.88 in 10.0 mi NW 13.8 mph - N/A   Clear
5:15 PM 24.8 °F 11.9 °F 8.6 °F 50% 29.90 in 10.0 mi NW 16.1 mph 20.7 mph N/A   Clear
5:55 PM 21.2 °F 10.1 °F 8.6 °F 58% 29.94 in 10.0 mi NNW 10.4 mph 13.8 mph N/A   Clear
6:15 PM 21.2 °F 8.9 °F 5.0 °F 50% 29.96 in 10.0 mi NW 12.7 mph - N/A   Clear
6:35 PM 19.4 °F 7.2 °F 3.2 °F 49% 29.97 in 10.0 mi NW 11.5 mph - N/A   Clear
6:55 PM 19.4 °F 6.6 °F 1.4 °F 46% 29.99 in 10.0 mi NNW 12.7 mph 19.6 mph N/A   Clear
7:15 PM 17.6 °F 5.7 °F 1.4 °F 49% 30.01 in 10.0 mi NNW 10.4 mph 18.4 mph N/A   Clear
7:35 PM 17.6 °F 5.0 °F 1.4 °F 49% 30.03 in 10.0 mi NNW 11.5 mph - N/A   Clear
7:55 PM 17.6 °F 5.7 °F 1.4 °F 49% 30.05 in 10.0 mi NW 10.4 mph - N/A   Clear
8:15 PM 15.8 °F 5.1 °F 1.4 °F 53% 30.03 in 10.0 mi NNW 8.1 mph - N/A   Clear
8:35 PM 15.8 °F 2.7 °F -0.4 °F 49% 30.03 in 10.0 mi NNW 11.5 mph - N/A   Clear
8:55 PM 14.0 °F 2.9 °F -0.4 °F 53% 30.06 in 10.0 mi NW 8.1 mph - N/A   Clear
9:15 PM 14.0 °F 3.9 °F -0.4 °F 53% 30.08 in 10.0 mi NW 6.9 mph - N/A   Clear
9:35 PM 12.2 °F 1.7 °F -0.4 °F 57% 30.08 in 10.0 mi NNW 6.9 mph - N/A   Clear
9:55 PM 12.2 °F 1.7 °F -0.4 °F 57% 30.08 in 10.0 mi North 6.9 mph - N/A   Clear
10:15 PM 12.2 °F -1.0 °F -4.0 °F 48% 30.09 in 10.0 mi NNW 10.4 mph - N/A   Clear
10:35 PM 10.4 °F 0.8 °F -2.2 °F 57% 30.10 in 10.0 mi North 5.8 mph - N/A   Clear
10:55 PM 10.4 °F -1.5 °F -4.0 °F 52% 30.11 in 10.0 mi NNW 8.1 mph - N/A   Scattered Clouds
11:15 PM 10.4 °F -4.1 °F -4.0 °F 52% 30.13 in 10.0 mi NNW 11.5 mph - N/A   Mostly Cloudy
11:35 PM 10.4 °F -2.4 °F -5.8 °F 48% 30.13 in 10.0 mi NNW 9.2 mph - N/A   Mostly Cloudy
11:55 PM 10.4 °F -1.5 °F -5.8 °F 48% 30.16 in 10.0 mi NW 8.1 mph - N/A   Overcast